Weather History for Dallas/Ft Worth, TX

Change the Weather History Date:

Monday, February 20, 2012

  Actual Average Record
Temperature  
Mean Temperature 53 °F 51 °F  
Max Temperature 63 °F 61 °F 86 °F (1980)
Min Temperature 42 °F 41 °F 19 °F (1939)
Degree Days  
Heating Degree Days 12 14  
Month to date heating degree days 308 323  
Since 1 July heating degree days 1605 1828  
Cooling Degree Days 0 0  
Month to date cooling degree days 0 0  
Year to date cooling degree days 3 2  
Growing Degree Days 3 (Base 50)    
Moisture  
Dew Point 42 °F    
Average Humidity 56    
Maximum Humidity 92    
Minimum Humidity 20    
Precipitation  
Precipitation 0.00 in 0.09 in 2.42 in (1945)
Month to date precipitation 1.88 1.84  
Year to date precipitation 8.06 3.97  
Snow  
Snow 0.00 in 0.00 in 1.00 in (1929)
Month to date snowfall 0.3 0.4  
Since 1 July snowfall 0.3 1.0  
Snow Depth 0.00 in    
Sea Level Pressure  
Sea Level Pressure 29.99 in    
Wind  
Wind Speed 15 mph (South)    
Max Wind Speed 29 mph    
Max Gust Speed 35 mph    
Visibility 8 miles    
Events      
T = Trace of Precipitation, MM = Missing Value Source: NWS Daily Summary

Daily Weather History Graph

Daily Weather History Graph

Search for Another Location

Airport:

Trip Planner

Search our weather history database for the weather conditions in past years. The results will help you decide how hot, cold, wet, or windy it might be!

Date:

Astronomy

Feb. 20, 2012 Rise Set
Actual Time 7:06 AM CST 6:17 PM CST
Civil Twilight 6:41 AM CST 6:42 PM CST
Nautical Twilight 6:12 AM CST 7:11 PM CST
Astronomical Twilight 5:44 AM CST 7:39 PM CST
Moon 6:02 AM CST 5:23 PM CST
Length of Visible Light 12h 00m
Length of Day
11h 10m
Waning Crescent, 1% of the Moon is Illuminated
Feb 20
Waning Crescent
Feb 21
New
Feb 29
First Quarter
Mar 8
Full
Mar 14
Last Quarter

Hourly Weather History & Observations

Time (CST) Temp. Windchill Dew Point Humidity Pressure Visibility Wind Dir Wind Speed Gust Speed Precip Events Conditions
12:53 AM 45.0 °F 40.1 °F 41.0 °F 86% 30.01 in 8.0 mi SSE 9.2 mph - N/A   Partly Cloudy
1:53 AM 43.0 °F 38.8 °F 39.9 °F 89% 30.01 in 8.0 mi SE 6.9 mph - N/A   Partly Cloudy
2:53 AM 43.0 °F 41.3 °F 39.9 °F 89% 29.99 in 7.0 mi SSE 3.5 mph - N/A   Partly Cloudy
3:53 AM 44.1 °F 39.5 °F 41.0 °F 89% 29.98 in 7.0 mi SE 8.1 mph - N/A   Partly Cloudy
4:53 AM 45.0 °F 40.1 °F 41.0 °F 86% 29.98 in 7.0 mi SE 9.2 mph - N/A   Partly Cloudy
5:53 AM 45.0 °F 39.7 °F 41.0 °F 86% 29.99 in 7.0 mi SE 10.4 mph - N/A   Partly Cloudy
6:30 AM 46.4 °F 41.5 °F 42.8 °F 87% 30.00 in 8.0 mi SSE 10.4 mph - N/A   Mostly Cloudy
6:53 AM 46.0 °F 41.9 °F 43.0 °F 89% 30.01 in 8.0 mi SE 8.1 mph - N/A   Mostly Cloudy
7:26 AM 44.6 °F 41.4 °F 42.8 °F 93% 30.04 in 7.0 mi SSE 5.8 mph - N/A   Mostly Cloudy
7:53 AM 45.0 °F 39.3 °F 43.0 °F 93% 30.04 in 7.0 mi SSE 11.5 mph - N/A   Mostly Cloudy
8:22 AM 48.2 °F - 44.6 °F 87% 30.04 in 8.0 mi South 10.4 mph - N/A   Mostly Cloudy
8:53 AM 48.2 °F - 44.6 °F 87% 30.04 in 8.0 mi South 18.4 mph - N/A   Overcast
9:19 AM 50.0 °F - 46.4 °F 87% 30.04 in 8.0 mi South 16.1 mph 26.5 mph N/A   Overcast
9:53 AM 51.1 °F - 46.9 °F 86% 30.03 in 9.0 mi South 20.7 mph 27.6 mph N/A   Overcast
10:17 AM 53.6 °F - 48.2 °F 82% 30.02 in 10.0 mi SSE 20.7 mph 27.6 mph N/A   Mostly Cloudy
10:53 AM 55.0 °F - 46.9 °F 74% 30.01 in 10.0 mi South 20.7 mph 27.6 mph N/A   Mostly Cloudy
11:00 AM 55.4 °F - 46.4 °F 72% 30.01 in 10.0 mi South 17.3 mph 27.6 mph N/A   Mostly Cloudy
11:53 AM 55.0 °F - 48.0 °F 77% 29.98 in 10.0 mi South 23.0 mph - N/A   Overcast
12:53 PM 57.9 °F - 48.0 °F 70% 29.96 in 10.0 mi SSW 27.6 mph 33.4 mph N/A   Overcast
1:53 PM 60.1 °F - 50.0 °F 69% 29.93 in 10.0 mi South 21.9 mph 28.8 mph N/A   Overcast
2:53 PM 63.0 °F - 51.1 °F 65% 29.88 in 10.0 mi South 23.0 mph 29.9 mph N/A   Mostly Cloudy
3:00 PM 60.8 °F - 50.0 °F 68% 29.89 in 10.0 mi South 23.0 mph 29.9 mph N/A   Scattered Clouds
3:53 PM 63.0 °F - 52.0 °F 67% 29.87 in 10.0 mi South 21.9 mph 29.9 mph N/A   Scattered Clouds
4:53 PM 63.0 °F - 52.0 °F 67% 29.87 in 10.0 mi South 18.4 mph - N/A   Partly Cloudy
5:53 PM 62.1 °F - 53.1 °F 72% 29.87 in 10.0 mi South 16.1 mph 25.3 mph N/A   Partly Cloudy
6:53 PM 61.0 °F - 53.1 °F 75% 29.91 in 10.0 mi SSW 15.0 mph - N/A   Scattered Clouds
7:26 PM 62.6 °F - 48.2 °F 59% 29.97 in 10.0 mi WNW 19.6 mph 29.9 mph N/A   Partly Cloudy
7:42 PM 60.8 °F - 23.0 °F 23% 29.99 in 5.0 mi NW 17.3 mph 27.6 mph N/A   Haze
7:53 PM 61.0 °F - 19.0 °F 20% 29.99 in 5.0 mi NW 19.6 mph 27.6 mph N/A   Haze
8:11 PM 60.8 °F - 17.6 °F 19% 30.01 in 5.0 mi NW 17.3 mph - N/A   Haze
8:53 PM 57.0 °F - 21.9 °F 26% 30.03 in 7.0 mi NW 16.1 mph 24.2 mph N/A   Mostly Cloudy
9:53 PM 53.1 °F - 27.0 °F 37% 30.07 in 10.0 mi NNW 10.4 mph - N/A   Clear
10:53 PM 48.9 °F - 28.9 °F 46% 30.09 in 10.0 mi NNW 8.1 mph - N/A   Clear
11:53 PM 46.0 °F 43.1 °F 30.9 °F 56% 30.10 in 10.0 mi North 5.8 mph - N/A   Clear